Terminal Aerodrome Forecast
Issued by NWS Brownsville, TX

Home | Current Version | Previous Version | Text Only | Print | Product List | Glossary On
Versions: 1 2 3 4 5 6 7 8 9 10 11 12 13 14 15 16 17 18 19 20 21 22 23 24
000
FTUS44 KBRO 221100
TAFBRO
TAF
KBRO 221120Z 2212/2312 15005KT 5SM BR SCT015
      TEMPO 2212/2213 3SM BR SCT015
     FM221500 19009KT P6SM SCT015
     FM230400 14002KT 5SM BR BKN010
     FM230700 00000KT 2SM BR OVC007=

USA.gov is the U.S. government's official web portal to all federal, state and local government web resources and services.